Find Starlink 11522

NORAD ID: 63141 Int'l Des: 2025-043 Owner: SPXS Country: US Constellation: starlink operational
LEOCIRCULAR

Live-Position

3D-Globus wird geladen...

Über Starlink 11522

Beschreibung wird geladen...

Nächste Überflüge

Passes for default location (London). Set your location on the main map for personalized predictions.

Höhenverlauf

Loading altitude history...

Zweizeiliger Elementsatz

1 63141U 25043K 26125.46559036 .00434156 00000-0 32158-2 0 9997
2 63141 42.9995 268.2955 0002621 278.6883 81.3687 15.70822539 68228
Epoch: 5. Mai 2026 • Age: 15 hours

Aktueller Status

Höhe 366.0 km
Geschwindigkeit 7.69 km/s
Subsatellitenpunkt -40.93°S, 101.43°W
Startdatum 3. März 2025
Alter 1.1 years
Typ internet

Technische Details

Klassifizierung Payload
Masse 960.00 kg
Trockenmasse 910.00 kg
Gesamtmasse 960.00 kg
Länge 0.30 m
Durchmesser 4.10 m
Spannweite 29.00 m
Form Box + pan
Hersteller SPXS
Bus-Typ Starlink V2MD
Phasenstatus In Orbit
Besitzer/Staat SPXS/US

Most Searched